Previsão horária em Cerrito

Hoje, 27 Julho, Terça-feira

Tempo Temperatura Precipitação Vento Pressão Humidade
00:00 +11°C° 0.6 mm 1 m/s 540 mmHg 95%
01:00 +11°C° 0.6 mm 1 m/s 540 mmHg 95%
02:00 +11°C° 0.2 mm 1 m/s 540 mmHg 95%
03:00 +10°C° 0.2 mm 1 m/s 540 mmHg 94%
04:00 +10°C° 0.2 mm 1 m/s 540 mmHg 94%
05:00 +10°C° 0.2 mm 1 m/s 540 mmHg 94%
06:00 +10°C° 0.2 mm 1 m/s 540 mmHg 93%
07:00 +11°C° 0.2 mm 1 m/s 541 mmHg 92%
08:00 +11°C° 0.1 mm 1 m/s 541 mmHg 91%
09:00 +12°C° 0.1 mm 1 m/s 541 mmHg 89%
10:00 +12°C° 0.1 mm 1 m/s 542 mmHg 87%
11:00 +13°C° 0.5 mm 1 m/s 542 mmHg 87%
12:00 +13°C° 0.5 mm 1 m/s 541 mmHg 86%
13:00 +14°C° 0.5 mm 2 m/s 541 mmHg 86%
14:00 +13°C° 1.2 mm 1 m/s 541 mmHg 88%
15:00 +13°C° 1.2 mm 1 m/s 540 mmHg 89%
16:00 +12°C° 1.2 mm 1 m/s 540 mmHg 91%
17:00 +12°C° 0.9 mm 1 m/s 540 mmHg 92%
18:00 +11°C° 0.9 mm 1 m/s 540 mmHg 94%
19:00 +11°C° 0.9 mm 1 m/s 540 mmHg 95%
20:00 +11°C° 0.1 mm 1 m/s 541 mmHg 94%
21:00 +10°C° 0.1 mm 1 m/s 541 mmHg 94%
22:00 +10°C° 0.1 mm 1 m/s 541 mmHg 93%
23:00 +10°C° 0 mm 1 m/s 540 mmHg 93%

Amanhã, 28 Julho, Quarta-feira

Tempo Temperatura Precipitação Vento Pressão Humidade
00:00 +9°C° 0 mm 1 m/s 540 mmHg 92%
01:00 +9°C° 0 mm 1 m/s 539 mmHg 92%
02:00 +8°C° 0 mm 2 m/s 539 mmHg 92%
03:00 +8°C° 0 mm 2 m/s 539 mmHg 92%
04:00 +8°C° 0 mm 2 m/s 539 mmHg 91%
05:00 +9°C° 0 mm 1 m/s 539 mmHg 90%
06:00 +10°C° 0 mm 1 m/s 540 mmHg 88%
07:00 +11°C° 0 mm 1 m/s 540 mmHg 87%
08:00 +12°C° 0.1 mm 1 m/s 541 mmHg 83%
09:00 +13°C° 0.1 mm 1 m/s 542 mmHg 79%
10:00 +14°C° 0.1 mm 1 m/s 542 mmHg 75%
11:00 +14°C° 0.6 mm 1 m/s 542 mmHg 78%
12:00 +14°C° 0.6 mm 1 m/s 541 mmHg 81%
13:00 +14°C° 0.6 mm 1 m/s 541 mmHg 84%
14:00 +13°C° 1.5 mm 1 m/s 540 mmHg 87%
15:00 +13°C° 1.5 mm 1 m/s 540 mmHg 89%
16:00 +12°C° 1.5 mm 1 m/s 539 mmHg 92%
17:00 +12°C° 0.7 mm 1 m/s 539 mmHg 92%
18:00 +11°C° 0.7 mm 1 m/s 540 mmHg 93%
19:00 +11°C° 0.7 mm 1 m/s 540 mmHg 94%
20:00 +11°C° 0.8 mm 1 m/s 540 mmHg 94%
21:00 +10°C° 0.8 mm 1 m/s 540 mmHg 94%
22:00 +10°C° 0.8 mm 1 m/s 540 mmHg 93%
23:00 +10°C° 0.3 mm 1 m/s 540 mmHg 92%

Depois de amanhã, 29 Julho, Quinta-feira

Tempo Temperatura Precipitação Vento Pressão Humidade
00:00 +10°C° 0.3 mm 1 m/s 540 mmHg 92%
01:00 +10°C° 0.3 mm 1 m/s 539 mmHg 91%
02:00 +10°C° 0.1 mm 1 m/s 539 mmHg 91%
03:00 +10°C° 0.1 mm 1 m/s 539 mmHg 90%
04:00 +10°C° 0.1 mm 1 m/s 539 mmHg 90%
05:00 +10°C° 0 mm 1 m/s 539 mmHg 89%
06:00 +11°C° 0 mm 1 m/s 540 mmHg 87%
07:00 +11°C° 0 mm 1 m/s 540 mmHg 86%
08:00 +12°C° 0.1 mm 1 m/s 541 mmHg 82%
09:00 +13°C° 0.1 mm 1 m/s 541 mmHg 77%
10:00 +15°C° 0.1 mm 1 m/s 542 mmHg 73%
11:00 +15°C° 0.6 mm 1 m/s 542 mmHg 74%
12:00 +15°C° 0.6 mm 1 m/s 541 mmHg 75%
13:00 +15°C° 0.6 mm 1 m/s 541 mmHg 77%
14:00 +14°C° 0.9 mm 1 m/s 541 mmHg 80%
15:00 +14°C° 0.9 mm 1 m/s 540 mmHg 83%
16:00 +13°C° 0.9 mm 1 m/s 540 mmHg 87%
17:00 +13°C° 1 mm 1 m/s 540 mmHg 89%
18:00 +12°C° 1 mm 1 m/s 540 mmHg 91%
19:00 +10°C° 1 mm 2 m/s 540 mmHg 93%
20:00 +11°C° 0.4 mm 1 m/s 540 mmHg 92%
21:00 +11°C° 0.4 mm 1 m/s 541 mmHg 92%
22:00 +10°C° 0.4 mm 0 m/s 541 mmHg 91%
23:00 +11°C° 0 mm 1 m/s 541 mmHg 91%

30 Julho, Sexta-feira

Tempo Temperatura Precipitação Vento Pressão Humidade
00:00 +10°C° 0 mm 1 m/s 540 mmHg 91%
01:00 +10°C° 0 mm 1 m/s 540 mmHg 90%
02:00 +10°C° 0.1 mm 1 m/s 540 mmHg 90%
03:00 +10°C° 0.1 mm 1 m/s 540 mmHg 90%
04:00 +10°C° 0.1 mm 1 m/s 540 mmHg 89%
05:00 +11°C° 0 mm 1 m/s 540 mmHg 88%
06:00 +11°C° 0 mm 1 m/s 541 mmHg 88%
07:00 +11°C° 0 mm 1 m/s 541 mmHg 87%
08:00 +12°C° 0.2 mm 1 m/s 542 mmHg 83%
09:00 +14°C° 0.2 mm 1 m/s 542 mmHg 79%
10:00 +15°C° 0.2 mm 1 m/s 543 mmHg 75%
11:00 +15°C° 0.5 mm 1 m/s 542 mmHg 76%
12:00 +15°C° 0.5 mm 1 m/s 542 mmHg 77%
13:00 +15°C° 0.5 mm 1 m/s 542 mmHg 78%
14:00 +14°C° 0.6 mm 1 m/s 541 mmHg 80%
15:00 +14°C° 0.6 mm 1 m/s 541 mmHg 82%
16:00 +14°C° 0.6 mm 1 m/s 541 mmHg 85%
17:00 +13°C° 0.9 mm 1 m/s 541 mmHg 87%
18:00 +12°C° 0.9 mm 2 m/s 541 mmHg 90%
19:00 +10°C° 0.9 mm 2 m/s 541 mmHg 93%
20:00 +10°C° 0.4 mm 2 m/s 541 mmHg 93%
21:00 +10°C° 0.4 mm 2 m/s 541 mmHg 93%
22:00 +10°C° 0.4 mm 1 m/s 541 mmHg 93%
23:00 +10°C° 0.2 mm 1 m/s 541 mmHg 93%

31 Julho, Sábado

Tempo Temperatura Precipitação Vento Pressão Humidade
00:00 +10°C° 0.2 mm 1 m/s 541 mmHg 93%
01:00 +10°C° 0.2 mm 1 m/s 540 mmHg 92%
02:00 +10°C° 0 mm 1 m/s 540 mmHg 92%
03:00 +10°C° 0 mm 1 m/s 540 mmHg 92%
04:00 +10°C° 0 mm 1 m/s 540 mmHg 92%
05:00 +10°C° 0 mm 1 m/s 540 mmHg 90%
06:00 +11°C° 0 mm 1 m/s 541 mmHg 89%
07:00 +11°C° 0 mm 1 m/s 541 mmHg 88%
08:00 +12°C° 0.2 mm 1 m/s 542 mmHg 83%
09:00 +14°C° 0.2 mm 1 m/s 543 mmHg 78%
10:00 +15°C° 0.2 mm 2 m/s 543 mmHg 74%
11:00 +15°C° 0.6 mm 2 m/s 543 mmHg 75%
12:00 +15°C° 0.6 mm 2 m/s 542 mmHg 77%
13:00 +15°C° 0.6 mm 1 m/s 542 mmHg 78%
14:00 +15°C° 0.7 mm 1 m/s 542 mmHg 80%
15:00 +14°C° 0.7 mm 1 m/s 541 mmHg 83%
16:00 +14°C° 0.7 mm 1 m/s 541 mmHg 85%
17:00 +13°C° 0.6 mm 1 m/s 541 mmHg 87%
18:00 +12°C° 0.6 mm 2 m/s 541 mmHg 89%
19:00 +10°C° 0.6 mm 2 m/s 541 mmHg 92%
20:00 +10°C° 0.3 mm 2 m/s 541 mmHg 91%
21:00 +9°C° 0.3 mm 2 m/s 541 mmHg 91%
22:00 +9°C° 0.3 mm 2 m/s 541 mmHg 91%
23:00 +9°C° 0.2 mm 2 m/s 541 mmHg 92%

1 Agosto, Domingo

Tempo Temperatura Precipitação Vento Pressão Humidade
00:00 +9°C° 0.2 mm 2 m/s 541 mmHg 92%
01:00 +10°C° 0.2 mm 1 m/s 540 mmHg 92%
02:00 +10°C° 0 mm 1 m/s 540 mmHg 91%
03:00 +10°C° 0 mm 1 m/s 540 mmHg 91%
04:00 +10°C° 0 mm 1 m/s 540 mmHg 91%
05:00 +10°C° 0 mm 1 m/s 541 mmHg 89%
06:00 +11°C° 0 mm 1 m/s 541 mmHg 88%
07:00 +11°C° 0 mm 1 m/s 541 mmHg 87%
08:00 +13°C° 0.2 mm 1 m/s 542 mmHg 82%
09:00 +14°C° 0.2 mm 1 m/s 543 mmHg 78%
10:00 +15°C° 0.2 mm 1 m/s 543 mmHg 73%
11:00 +15°C° 0.7 mm 1 m/s 543 mmHg 75%
12:00 +15°C° 0.7 mm 1 m/s 543 mmHg 77%
13:00 +15°C° 0.7 mm 1 m/s 542 mmHg 80%
14:00 +14°C° 0.8 mm 1 m/s 542 mmHg 82%
15:00 +14°C° 0.8 mm 2 m/s 541 mmHg 85%
16:00 +14°C° 0.8 mm 2 m/s 541 mmHg 88%
17:00 +13°C° 0.6 mm 2 m/s 541 mmHg 90%
18:00 +12°C° 0.6 mm 2 m/s 541 mmHg 92%
19:00 +10°C° 0.6 mm 2 m/s 541 mmHg 94%
20:00 +10°C° 0.6 mm 2 m/s 541 mmHg 94%
21:00 +10°C° 0.6 mm 2 m/s 541 mmHg 93%
22:00 +11°C° 0.6 mm 1 m/s 541 mmHg 93%
23:00 +11°C° 0.5 mm 1 m/s 541 mmHg 92%
Mostrar mais

Necessitamos do seu Consentimento

A Meteoprog e os seus Fornecedores de Serviços podem armazenar e aceder a dados pessoais como cookies, identificadores do dispositivo ou outras tecnologias semelhantes existentes no seu dispositivo e processar estes dados para personalizar conteúdos e anúncios, assim como funcionalidades nas redes sociais e análise de tráfego.

  • Armazenar e/ou aceder a informações no seu dispositivo

    Os cookies, identificadores do dispositivo ou outras informações podem ser armazenados ou acedidos no seu dispositivo, para os fins acima indicados.

  • Anúncios e conteúdos personalizados, medição de anúncios e conteúdos, dados sobre o público-alvo e desenvolvimento de produtos

    Os anúncios e os conteúdos podem ser personalizados com base num perfil. Podem ser adicionados dados adicionais para uma maior personalização dos anúncios e dos conteúdos. A eficácia dos anúncios e dos conteúdos pode ser medida. Podem ser obtidas informações sobre o público que visualizou os anúncios e os conteúdos. Estes dados podem ser usados para desenvolver ou melhorar sistemas, softwares ou a experiência do utilizador.

Ao clicar em "Eu concordo”, permitirá o uso de cookies, identificadores do dispositivo e web beacons mencionados ou outras tecnologias semelhantes. As configurações do navegador do seu dispositivo podem ser alteradas.

Para certos fins, podem ser invocados interesses legítimos ao invés de consentimento. Pode ler mais informação sobre este assunto na nossa Política de Privacidade e Cookies.